GW0525 Weather Reports


Display with metric or nautical units.
time (UTC)temp
F
wind
direction
speed
MPH
gust
MPH
rain 1hr
in
rain 24hr
in
rain mn
in
humidity
%
barometer
mb
20260508140121 53 348 8.0 11.0 0.00 0.00 0.00 45 1012.1
20260508134600 52 323 8.0 12.0 0.00 0.00 0.00 48 1012.0
20260508133109 50 316 7.0 11.0 0.00 0.00 0.00 51 1011.9
20260508131602 49 324 7.0 10.0 0.00 0.00 0.00 56 1011.7
20260508124601 44 329 8.0 10.0 0.00 0.00 0.00 66 1011.3
20260508123101 42 326 8.0 10.0 0.00 0.00 0.00 69 1011.1
20260508121602 42 336 10.0 12.0 0.00 0.00 0.00 69 1010.9
20260508114601 41 334 12.0 17.0 0.00 0.00 0.00 70 1010.6
20260508113101 41 326 13.0 17.0 0.00 0.00 0.00 70 1010.3
20260508111606 42 331 14.0 16.0 0.00 0.00 0.00 69 1010.1
20260508110110 42 324 12.0 16.0 0.00 0.00 0.00 70 1010.0
20260508104613 43 340 11.0 16.0 0.00 0.00 0.00 69 1009.9
20260508103104 44 317 9.0 14.0 0.00 0.00 0.00 69 1009.6
20260508101600 45 312 12.0 17.0 0.00 0.00 0.00 67 1009.6
20260508094601 46 288 11.0 15.0 0.00 0.00 0.00 68 1009.2
20260508093101 48 292 15.0 22.0 0.00 0.00 0.00 64 1009.1
20260508091610 49 280 15.0 21.0 0.00 0.00 0.00 64 1008.8
20260508090109 49 269 14.0 18.0 0.00 0.00 0.00 64 1008.6
20260508084615 49 279 14.0 20.0 0.00 0.00 0.00 64 1008.6
20260508083111 49 271 14.0 21.0 0.00 0.00 0.00 65 1008.5
20260508081601 50 275 14.0 20.0 0.00 0.00 0.00 65 1008.6
20260508080111 50 285 15.0 23.0 0.00 0.00 0.00 65 1008.5
20260508074623 50 279 13.0 18.0 0.00 0.00 0.00 65 1008.4
20260508073102 50 265 12.0 17.0 0.00 0.00 0.00 67 1008.4
20260508071600 49 277 11.0 15.0 0.00 0.00 0.00 67 1008.4
20260508070104 49 269 11.0 14.0 0.00 0.00 0.00 68 1008.5
20260508064601 48 253 8.0 11.0 0.00 0.00 0.00 67 1008.5
20260508063059 49 252 10.0 12.0 0.00 0.00 0.00 65 1008.5
20260508061601 49 246 10.0 12.0 0.00 0.00 0.00 63 1008.5
20260508060101 50 269 10.0 12.0 0.00 0.00 0.00 61 1008.6
20260508054602 49 250 11.0 12.0 0.00 0.00 0.00 61 1008.6
20260508053106 49 245 10.0 11.0 0.00 0.00 0.00 56 1008.7
20260508051612 49 261 9.0 11.0 0.00 0.00 0.00 53 1008.8
20260508050128 49 261 8.0 10.0 0.00 0.00 0.00 50 1008.8
20260508044559 50 249 8.0 11.0 0.00 0.00 0.00 47 1008.9
20260508043108 51 254 10.0 11.0 0.00 0.00 0.00 45 1009.0
20260508041611 52 272 8.0 11.0 0.00 0.00 0.00 43 1009.0
20260508040107 53 252 7.0 9.0 0.00 0.00 0.00 42 1008.9
20260508034600 55 264 8.0 10.0 0.00 0.00 0.00 39 1008.9
20260508033100 54 281 8.0 10.0 0.00 0.00 0.00 40 1009.1
20260508031559 55 271 8.0 10.0 0.00 0.00 0.00 39 1009.0
20260508030058 54 312 3.0 8.0 0.00 0.00 0.00 38 1009.0
20260508024559 56 290 8.0 9.0 0.00 0.00 0.00 37 1008.8
20260508023059 56 289 7.0 9.0 0.00 0.00 0.00 37 1008.7
20260508021558 58 295 4.0 9.0 0.00 0.00 0.00 35 1008.7
20260508020059 58 304 5.0 10.0 0.00 0.00 0.00 34 1008.4
20260508014558 60 322 8.0 12.0 0.00 0.00 0.00 32 1008.5
20260508013058 61 313 10.0 18.0 0.00 0.00 0.00 31 1008.4
20260508011558 62 330 14.0 19.0 0.00 0.00 0.00 30 1008.3
20260508010058 63 315 10.0 25.0 0.00 0.00 0.00 29 1008.3
20260508004601 63 327 15.0 22.0 0.00 0.00 0.00 29 1008.4
20260508003059 63 327 18.0 25.0 0.00 0.00 0.00 29 1008.5
20260508001600 62 333 14.0 21.0 0.00 0.00 0.00 27 1008.6
20260507234603 63 285 19.0 33.0 0.00 0.00 0.00 27 1008.5
20260507233116 64 325 16.0 30.0 0.00 0.00 0.00 25 1008.5
20260507231605 64 318 14.0 19.0 0.00 0.00 0.00 24 1008.2
20260507230059 64 313 13.0 21.0 0.00 0.00 0.00 24 1008.3
20260507224604 63 339 13.0 23.0 0.00 0.00 0.00 25 1008.1
20260507223116 62 340 17.0 22.0 0.00 0.00 0.00 25 1008.2
20260507221559 63 323 14.0 23.0 0.00 0.00 0.00 24 1008.3
20260507220059 63 322 8.0 21.0 0.00 0.00 0.00 23 1008.2
20260507214603 64 320 15.0 30.0 0.00 0.00 0.00 23 1008.5
20260507213101 63 350 13.0 25.0 0.00 0.00 0.00 23 1008.7
20260507211604 62 314 13.0 18.0 0.00 0.00 0.00 23 1008.9
20260507210115 62 338 10.0 18.0 0.00 0.00 0.00 22 1009.1
20260507204600 62 323 4.0 14.0 0.00 0.00 0.00 23 1009.3
20260507203100 62 304 13.0 23.0 0.00 0.00 0.00 21 1009.4
20260507201600 62 225 9.0 22.0 0.00 0.00 0.00 21 1009.3
20260507200106 63 255 14.0 21.0 0.00 0.00 0.00 20 1009.3
20260507194600 63 294 7.0 20.0 0.00 0.00 0.00 20 1009.3
20260507193057 62 304 4.0 18.0 0.00 0.00 0.00 21 1009.3
20260507191603 62 11 5.0 11.0 0.00 0.00 0.00 21 1009.4
20260507190107 61 25 10.0 17.0 0.00 0.00 0.00 22 1009.5
20260507184558 61 329 13.0 23.0 0.00 0.00 0.00 23 1009.6
20260507183116 60 331 1.0 8.0 0.00 0.00 0.00 22 1009.7
20260507181600 60 302 3.0 13.0 0.00 0.00 0.00 23 1009.9
20260507180105 59 259 7.0 10.0 0.00 0.00 0.00 22 1009.9
20260507174605 58 0 0.0 11.0 0.00 0.00 0.00 23 1010.0
20260507173113 58 285 6.0 14.0 0.00 0.00 0.00 23 1010.1
20260507171557 57 247 5.0 11.0 0.00 0.00 0.00 23 1010.1
20260507170100 57 232 6.0 12.0 0.00 0.00 0.00 23 1010.2
20260507164630 57 271 4.0 14.0 0.00 0.00 0.00 23 1010.3
20260507163059 56 271 4.0 9.0 0.00 0.00 0.00 24 1010.4
20260507161604 56 136 2.0 9.0 0.00 0.00 0.00 22 1010.4
20260507160058 55 0 4.0 10.0 0.00 0.00 0.00 22 1010.5
20260507154601 54 160 5.0 9.0 0.00 0.00 0.00 23 1010.6
20260507153059 53 215 6.0 10.0 0.00 0.00 0.00 24 1010.6
20260507151557 52 208 6.0 10.0 0.00 0.00 0.00 26 1010.7
20260507150059 51 191 4.0 9.0 0.00 0.00 0.00 27 1010.7
20260507144601 49 204 3.0 11.0 0.00 0.00 0.00 28 1010.4
20260507143119 49 172 2.0 5.0 0.00 0.00 0.00 31 1010.4
20260507141604 47 0 0.0 1.0 0.00 0.00 0.00 33 1010.5